Weather in Khoronkhoy

Russia / Republic of Buryatia     50°28′26″N   106°08′53″E
temp.,
°C
wind,
m/s
gust,
m/s
humid.,
%
clouds,
%
prec.,
mm/h
press.,
hPa
HPBL,
m
4 july, mon
mon423:00+16n2455100 0.0 100484
02:00+15n2458100 0.0 100477
05:00+13nw2263100 0.0 100325
08:00+17n3753100 0.0 1002454
11:00+22nne553999 0.0 10011523
14:00+24nne553195 0.0 10002056
17:00+23nne553416 0.0 10001846
20:00+20nne584378 0.0 1002619
5 july, tue
tue523:00+16nne345766 0.0 100376
02:00+14n1165100 0.0 100311
05:00+14n2263100 0.0 100328
08:00+17nnw235875 0.0 1005591
11:00+21n454678 0.0 10041545
14:00+23n443671 0.0 10032229
17:00+22n4539100 0.0 10031109
20:00+20nne4744100 0.0 1004383
6 july, wed
wed623:00+15nne126519 0.0 100411
02:00+14w22665 0.0 100511
05:00+12ssw11772 0.0 100410
08:00+18wsw22541 0.0 1004377
11:00+23sw33410 0.0 10021701
14:00+26sw44315 0.0 9992577
17:00+27sw332528 0.0 9972854
20:00+22n2344100 0.1 99850
7 july, thu
thu723:00+18ne126799 0.7 99925
02:00+16w1272100 0.8 100019
05:00+16wnw1175100 0.3 100011
08:00+15sw3587100 1.4 1001187
11:00+18wnw246699 0.1 1002745
14:00+24nne8931100 0.4 10002875
17:00+25n6828100 0.0 10012976
20:00+22nnw7114123 0.0 10031228
8 july, fri
fri823:00+16nw37631 0.0 1006136
02:00+13w22755 0.0 100722
05:00+12w2280100 0.0 100720
08:00+17w2461100 0.0 1008298
11:00+22wnw3341100 0.0 10081499
14:00+21nne5543100 0.0 1007933
17:00+25nne2233100 0.0 10061742
20:00+21nne0150100 0.0 100611